Flag Weather past 2 weeks in Chicago, Illinois, U.S.A.

Now
40 °F

Overcast.


Feels Like: 30 °F
Forecast: 39 / 47 °F
Wind: 23 mph from Northwest

Location: Chicago Midway Airport

Current Time: Oct 31, 2014 at 8:05:43 AM

Latest Report: Oct 31, 2014 at 6:53 AM


Visibility: 10 mi

Pressure: 30.09 "Hg

Humidity: 65%

Dew point: 29 °F

Location of ChicagoLocation

Historic Weather in Chicago — Graph

°F

Chicago temperature yesterday

Maximum temperature yesterday: 52 °F (at 1:53 PM)
Minimum temperature yesterday: 37 °F (at 5:53 AM)
Average temperature yesterday: 46 °F

Past Weeks' High & Low Weather Summary

 TemperatureHumidityPressure
High78 °F (Oct 27, 1:53 PM)93% (Oct 16, 6:53 AM)30.38 "Hg (Oct 16, 6:53 AM)
Low37 °F (Oct 19, 4:53 AM)19% (Oct 25, 3:53 PM)29.56 "Hg (Oct 17, 4:53 AM)
Average54 °F65%29.98 "Hg
* Reported Oct 16 6:53 AM — Oct 31 6:53 AM, Chicago, Weather by CustomWeather, © 2014

Note: Actual official high and low records may vary slightly from our data, if they occured in-between our weather recording intervals... More about our weather records

Advertising

Chicago weather history for previous 24 hours

 ConditionsComfort  
Time TempWeatherWind HumidityBarometerVisibility
6:53 AM
Oct 31
40 °FOvercast.23 mph65%30.09 "Hg10 mi
5:53 AM43 °FOvercast.20 mph65%30.06 "Hg10 mi
4:53 AM44 °FLight rain. Overcast.22 mph71%30.04 "Hg10 mi
3:53 AM45 °FLight rain. Mostly cloudy.20 mph65%30.03 "Hg10 mi
2:53 AM48 °FLight rain. Mostly cloudy.8 mph71%30.02 "Hg10 mi
1:53 AM48 °FLight rain. Overcast.10 mph68%30.02 "Hg10 mi
12:53 AM48 °FLight rain. Mostly cloudy.8 mph66%30.03 "Hg10 mi
11:53 PM
Oct 30
48 °FOvercast.9 mph66%30.04 "Hg10 mi
10:53 PM48 °FMostly cloudy.7 mph66%30.06 "Hg10 mi
9:53 PM49 °FMostly cloudy.6 mph64%30.06 "Hg10 mi
8:53 PM49 °FOvercast.7 mph64%30.06 "Hg10 mi
7:53 PM50 °FOvercast.5 mph59%30.07 "Hg10 mi
6:53 PM50 °FOvercast.6 mph59%30.08 "Hg10 mi
5:53 PM50 °FMore clouds than sun.8 mph59%30.08 "Hg10 mi
4:53 PM51 °FOvercast.9 mph56%30.07 "Hg10 mi
3:53 PM52 °FMostly cloudy.10 mph55%30.07 "Hg10 mi
2:53 PM52 °FMostly cloudy.9 mph55%30.07 "Hg10 mi
1:53 PM52 °FMostly cloudy.12 mph55%30.09 "Hg10 mi
12:53 PM51 °FMostly cloudy.10 mph54%30.11 "Hg10 mi
11:53 AM51 °FPartly sunny.9 mph54%30.13 "Hg10 mi
10:53 AM48 °FPartly sunny.10 mph61%30.14 "Hg10 mi
9:53 AM44 °FBroken clouds.7 mph71%30.15 "Hg10 mi
8:53 AM41 °FPartly sunny.5 mph80%30.16 "Hg10 mi
Weather by CustomWeather, © 2014

See weather overviewHow to use our weather pages